This is the latest recevied weather packets stored in our database for station/object IN3BXS. If no packets are shown the sender has not sent any weather packets the latest 10 day(s).
| Time | Temp. | Humidity | Pressure | Rain* | Wind** | Luminosity | Snow |
|---|---|---|---|---|---|---|---|
| 1778038226 | 8.33° C | 50% | 1008.4 hPa | 0 mm | - | - | - |
| 1778036426 | 7.78° C | 50% | 1008.5 hPa | 0 mm | - | - | - |
| 1778034626 | 7.78° C | 49% | 1008.6 hPa | 0 mm | - | - | - |
| 1778032826 | 8.33° C | 50% | 1008.3 hPa | 0 mm | - | - | - |
| 1778031026 | 8.33° C | 50% | 1009.5 hPa | 0 mm | - | - | - |
| 1778029226 | 8.33° C | 50% | 1009.5 hPa | 0 mm | - | - | - |
| 1778027426 | 8.33° C | 50% | 1009.5 hPa | 0 mm | - | - | - |
| 1778025626 | 8.33° C | 50% | 1009.4 hPa | 0 mm | - | - | - |
| 1778023826 | 8.33° C | 51% | 1009.4 hPa | 0 mm | - | - | - |
| 1778022026 | 8.33° C | 52% | 1009.4 hPa | 0 mm | - | - | - |
| 1778020227 | 8.33° C | 52% | 1009.5 hPa | 0 mm | - | - | - |
| 1778018427 | 7.22° C | 50% | 1010 hPa | 0 mm | - | - | - |
| 1778016626 | 7.78° C | 50% | 1010.9 hPa | 0 mm | - | - | - |
| 1778014826 | 7.78° C | 48% | 1010.8 hPa | 0 mm | - | - | - |
| 1778013027 | 8.89° C | 50% | 1010.4 hPa | 0 mm | - | - | - |
| 1778011226 | 8.33° C | 49% | 1009.4 hPa | 0 mm | - | - | - |
| 1778007626 | 8.89° C | 50% | 1009.1 hPa | 0 mm | - | - | - |
| 1778005826 | 8.89° C | 49% | 1009.2 hPa | 0 mm | - | - | - |
| 1778004026 | 8.89° C | 48% | 1009.1 hPa | 0 mm | - | - | - |
| 1778002226 | 9.44° C | 45% | 1009 hPa | 0 mm | - | - | - |
| 1777998626 | 9.44° C | 41% | 1008.9 hPa | 0 mm | - | - | - |
| 1777996826 | 9.44° C | 41% | 1008.9 hPa | 0 mm | - | - | - |
| 1777995026 | 10° C | 43% | 1008.8 hPa | 0 mm | - | - | - |
| 1777993226 | 9.44° C | 43% | 1008.9 hPa | 0 mm | - | - | - |
| 1777991426 | 9.44° C | 43% | 1008.9 hPa | 0 mm | - | - | - |
* Rain latest hour (hover to see other rain measurements)
** Current wind speed in m/s (hover to see current wind gust speed)